When you browse on this site, cookies collect data to enhance your experience and personalize the content and advertising you see.
Visit our Privacy Policy to learn more. By continuing to use the site, you agree to this use of cookies and data.
  • In Österreich
  • Länderverzeichnis
  • Für 7 Tage
  • Wassertemperatur
  • Satellitenkarten
  • Wetterkarte
  • News
  • Widgets
  • user-avatar
    Anmelden

    Stündliche Wetter Coram

    Heute, 25 Juni, Dienstag

    Zeit Temperatur Niederschläge Wind Luftdruck Luftfeuchtigkeit
    00:00 +22°C° 0 mm 4 m/S 755 mmHg 81%
    01:00 +21°C° 0 mm 4 m/S 755 mmHg 83%
    02:00 +21°C° 0 mm 4 m/S 755 mmHg 84%
    03:00 +21°C° 0 mm 4 m/S 755 mmHg 85%
    04:00 +21°C° 0 mm 4 m/S 754 mmHg 87%
    05:00 +21°C° 0.2 mm 4 m/S 755 mmHg 89%
    06:00 +21°C° 0.2 mm 4 m/S 755 mmHg 90%
    07:00 +21°C° 0.2 mm 4 m/S 755 mmHg 92%
    08:00 +21°C° 0.6 mm 4 m/S 755 mmHg 93%
    09:00 +21°C° 0.6 mm 4 m/S 755 mmHg 93%
    10:00 +21°C° 0.6 mm 4 m/S 754 mmHg 94%
    11:00 +22°C° 0.6 mm 4 m/S 754 mmHg 91%
    12:00 +24°C° 0.6 mm 3 m/S 754 mmHg 88%
    13:00 +25°C° 0.6 mm 3 m/S 754 mmHg 85%
    14:00 +25°C° 0 mm 3 m/S 754 mmHg 82%
    15:00 +26°C° 0 mm 2 m/S 754 mmHg 80%
    16:00 +26°C° 0 mm 2 m/S 754 mmHg 77%
    17:00 +26°C° 0 mm 2 m/S 754 mmHg 79%
    18:00 +25°C° 0 mm 2 m/S 754 mmHg 82%
    19:00 +25°C° 0 mm 2 m/S 755 mmHg 84%
    20:00 +25°C° 0.1 mm 1 m/S 755 mmHg 83%
    21:00 +24°C° 0.1 mm 1 m/S 755 mmHg 82%
    22:00 +24°C° 0.1 mm 1 m/S 756 mmHg 81%
    23:00 +24°C° 0 mm 2 m/S 756 mmHg 81%

    Morgen, 26 Juni, Mittwoch

    Zeit Temperatur Niederschläge Wind Luftdruck Luftfeuchtigkeit
    00:00 +24°C° 0 mm 3 m/S 756 mmHg 81%
    01:00 +23°C° 0 mm 4 m/S 756 mmHg 81%
    02:00 +22°C° 0 mm 4 m/S 757 mmHg 80%
    03:00 +22°C° 0 mm 3 m/S 757 mmHg 79%
    04:00 +21°C° 0 mm 3 m/S 757 mmHg 78%
    05:00 +22°C° 0 mm 3 m/S 758 mmHg 76%
    06:00 +22°C° 0 mm 3 m/S 758 mmHg 74%
    07:00 +23°C° 0 mm 2 m/S 759 mmHg 73%
    08:00 +24°C° 0 mm 2 m/S 759 mmHg 68%
    09:00 +26°C° 0 mm 2 m/S 759 mmHg 63%
    10:00 +27°C° 0 mm 1 m/S 759 mmHg 58%
    11:00 +28°C° 0 mm 2 m/S 759 mmHg 55%
    12:00 +29°C° 0 mm 2 m/S 759 mmHg 51%
    13:00 +30°C° 0 mm 2 m/S 759 mmHg 47%
    14:00 +29°C° 0 mm 2 m/S 759 mmHg 48%
    15:00 +29°C° 0 mm 3 m/S 759 mmHg 49%
    16:00 +29°C° 0 mm 3 m/S 758 mmHg 50%
    17:00 +28°C° 0 mm 4 m/S 758 mmHg 55%
    18:00 +26°C° 0 mm 4 m/S 759 mmHg 59%
    19:00 +25°C° 0 mm 5 m/S 759 mmHg 64%
    20:00 +25°C° 0 mm 5 m/S 759 mmHg 66%
    21:00 +25°C° 0 mm 4 m/S 759 mmHg 67%
    22:00 +23°C° 0 mm 4 m/S 760 mmHg 69%
    23:00 +24°C° 0 mm 3 m/S 760 mmHg 69%

    übermorgen, 27 Juni, Donnerstag

    Zeit Temperatur Niederschläge Wind Luftdruck Luftfeuchtigkeit
    00:00 +24°C° 0 mm 2 m/S 760 mmHg 70%
    01:00 +24°C° 0 mm 2 m/S 760 mmHg 71%
    02:00 +24°C° 0 mm 2 m/S 760 mmHg 73%
    03:00 +24°C° 0 mm 2 m/S 760 mmHg 74%
    04:00 +24°C° 0 mm 2 m/S 760 mmHg 76%
    05:00 +24°C° 0 mm 2 m/S 760 mmHg 74%
    06:00 +24°C° 0 mm 2 m/S 760 mmHg 72%
    07:00 +25°C° 0 mm 2 m/S 761 mmHg 71%
    08:00 +26°C° 0 mm 1 m/S 761 mmHg 68%
    09:00 +26°C° 0 mm 1 m/S 761 mmHg 65%
    10:00 +27°C° 0 mm 1 m/S 761 mmHg 62%
    11:00 +28°C° 0 mm 1 m/S 761 mmHg 58%
    12:00 +29°C° 0 mm 1 m/S 761 mmHg 53%
    13:00 +30°C° 0 mm 1 m/S 761 mmHg 49%
    14:00 +30°C° 0 mm 1 m/S 761 mmHg 48%
    15:00 +31°C° 0 mm 2 m/S 760 mmHg 48%
    16:00 +31°C° 0 mm 2 m/S 760 mmHg 47%
    17:00 +29°C° 0 mm 2 m/S 761 mmHg 51%
    18:00 +28°C° 0 mm 3 m/S 761 mmHg 56%
    19:00 +27°C° 0 mm 3 m/S 761 mmHg 61%
    20:00 +26°C° 0 mm 3 m/S 761 mmHg 63%
    21:00 +25°C° 0 mm 2 m/S 762 mmHg 66%
    22:00 +25°C° 0 mm 2 m/S 762 mmHg 68%
    23:00 +25°C° 0 mm 2 m/S 762 mmHg 66%

    28 Juni, Freitag

    Zeit Temperatur Niederschläge Wind Luftdruck Luftfeuchtigkeit
    00:00 +25°C° 0 mm 2 m/S 762 mmHg 63%
    01:00 +25°C° 0 mm 2 m/S 762 mmHg 60%
    02:00 +24°C° 0 mm 2 m/S 762 mmHg 61%
    03:00 +24°C° 0 mm 2 m/S 762 mmHg 62%
    04:00 +24°C° 0 mm 2 m/S 762 mmHg 62%
    05:00 +24°C° 0 mm 2 m/S 762 mmHg 61%
    06:00 +24°C° 0 mm 2 m/S 763 mmHg 59%
    07:00 +25°C° 0 mm 2 m/S 763 mmHg 58%
    08:00 +26°C° 0 mm 2 m/S 763 mmHg 55%
    09:00 +27°C° 0 mm 1 m/S 763 mmHg 52%
    10:00 +28°C° 0 mm 1 m/S 763 mmHg 49%
    11:00 +29°C° 0 mm 1 m/S 763 mmHg 46%
    12:00 +30°C° 0 mm 1 m/S 763 mmHg 44%
    13:00 +31°C° 0 mm 1 m/S 762 mmHg 41%
    14:00 +31°C° 0 mm 2 m/S 762 mmHg 42%
    15:00 +31°C° 0 mm 2 m/S 762 mmHg 42%
    16:00 +30°C° 0 mm 3 m/S 761 mmHg 43%
    17:00 +29°C° 0 mm 3 m/S 761 mmHg 48%
    18:00 +27°C° 0 mm 3 m/S 761 mmHg 52%
    19:00 +26°C° 0 mm 4 m/S 761 mmHg 56%
    20:00 +26°C° 0 mm 4 m/S 761 mmHg 59%
    21:00 +25°C° 0 mm 4 m/S 761 mmHg 61%
    22:00 +25°C° 0 mm 5 m/S 761 mmHg 63%
    23:00 +25°C° 0.2 mm 4 m/S 761 mmHg 67%

    29 Juni, Samstag

    Zeit Temperatur Niederschläge Wind Luftdruck Luftfeuchtigkeit
    00:00 +23°C° 0.2 mm 4 m/S 761 mmHg 71%
    01:00 +23°C° 0.2 mm 4 m/S 760 mmHg 76%
    02:00 +24°C° 0 mm 3 m/S 760 mmHg 77%
    03:00 +24°C° 0 mm 3 m/S 759 mmHg 78%
    04:00 +24°C° 0 mm 3 m/S 759 mmHg 79%
    05:00 +24°C° 0 mm 3 m/S 759 mmHg 78%
    06:00 +25°C° 0 mm 4 m/S 759 mmHg 77%
    07:00 +25°C° 0 mm 4 m/S 758 mmHg 75%
    08:00 +26°C° 0.3 mm 4 m/S 758 mmHg 71%
    09:00 +27°C° 0.3 mm 4 m/S 758 mmHg 68%
    10:00 +28°C° 0.3 mm 4 m/S 758 mmHg 64%
    11:00 +28°C° 0.2 mm 4 m/S 757 mmHg 62%
    12:00 +28°C° 0.2 mm 4 m/S 757 mmHg 61%
    13:00 +28°C° 0.2 mm 4 m/S 756 mmHg 59%
    14:00 +29°C° 0 mm 5 m/S 756 mmHg 59%
    15:00 +29°C° 0 mm 5 m/S 755 mmHg 58%
    16:00 +29°C° 0 mm 5 m/S 755 mmHg 58%
    17:00 +29°C° 0.1 mm 5 m/S 755 mmHg 60%
    18:00 +28°C° 0.1 mm 4 m/S 755 mmHg 61%
    19:00 +28°C° 0.1 mm 3 m/S 755 mmHg 63%
    20:00 +27°C° 0 mm 4 m/S 755 mmHg 61%
    21:00 +27°C° 0 mm 5 m/S 755 mmHg 59%
    22:00 +26°C° 0 mm 5 m/S 755 mmHg 57%
    23:00 +26°C° 0 mm 5 m/S 755 mmHg 58%

    30 Juni, Sonntag

    Zeit Temperatur Niederschläge Wind Luftdruck Luftfeuchtigkeit
    00:00 +25°C° 0 mm 5 m/S 755 mmHg 58%
    01:00 +23°C° 0 mm 5 m/S 754 mmHg 58%
    02:00 +23°C° 0 mm 5 m/S 754 mmHg 59%
    03:00 +23°C° 0 mm 4 m/S 754 mmHg 60%
    04:00 +22°C° 0 mm 4 m/S 754 mmHg 61%
    05:00 +23°C° 0 mm 4 m/S 754 mmHg 60%
    06:00 +23°C° 0 mm 4 m/S 754 mmHg 58%
    07:00 +23°C° 0 mm 4 m/S 753 mmHg 57%
    08:00 +25°C° 0 mm 4 m/S 753 mmHg 54%
    09:00 +26°C° 0 mm 5 m/S 753 mmHg 51%
    10:00 +27°C° 0 mm 5 m/S 752 mmHg 47%
    11:00 +28°C° 0 mm 5 m/S 752 mmHg 46%
    12:00 +29°C° 0 mm 6 m/S 752 mmHg 44%
    13:00 +29°C° 0 mm 7 m/S 751 mmHg 42%
    14:00 +28°C° 0 mm 7 m/S 751 mmHg 43%
    15:00 +28°C° 0 mm 8 m/S 751 mmHg 43%
    16:00 +27°C° 0 mm 9 m/S 751 mmHg 43%
    17:00 +24°C° 0 mm 8 m/S 752 mmHg 45%
    18:00 +23°C° 0 mm 8 m/S 752 mmHg 48%
    19:00 +22°C° 0 mm 8 m/S 753 mmHg 50%
    20:00 +21°C° 0 mm 7 m/S 753 mmHg 52%
    21:00 +21°C° 0 mm 7 m/S 754 mmHg 53%
    22:00 +20°C° 0 mm 7 m/S 754 mmHg 55%
    23:00 +20°C° 0 mm 7 m/S 754 mmHg 57%
    Mehr zeigen